Dewpoint
65 62 48 45 29 29 25 24 26 27 35 38 35 37 41 41 39 37 54 62 64 66 72 73 74 73 72 72 71 71 71 70 69 68 67 66 66 64 63 63 61 61 60 61 62 62 62 62 61
56 50 40 38 24 25 19 28 27 29 40 42 38 40 41 39 45 50 52 63 65 68 71 72 74 73 73 72 71 71 70 69 69 68 67 66 66 65 62 62 61 61 61 62 62 62 63 63 64
51 47 32 34 29 26 21 31 34 37 37 41 38 40 44 44 51 53 57 65 67 69 70 70 74 73 73 72 71 71 70 69 69 68 67 67 67 66 65 63 62 62 62 63 63 63 63 63 65
48 42 33 28 30 32 30 34 38 32 34 41 39 39 40 47 52 53 63 67 67 68 69 71 73 73 73 72 72 71 70 70 69 69 68 68 67 67 67 64 64 64 64 64 64 65 65 65 65
43 34 26 26 26 30 34 35 32 31 36 40 40 40 40 44 51 61 64 66 66 68 68 69 73 73 73 72 72 71 71 70 69 69 69 68 68 68 66 65 65 65 66 66 66 67 67 68 68
37 33 27 21 24 27 29 30 32 32 39 32 39 40 39 44 51 61 64 64 64 67 68 68 72 73 72 72 72 71 71 70 70 69 69 69 69 68 67 66 66 66 66 66 67 67 68 70 69
34 29 26 26 27 28 29 32 31 30 32 31 42 40 40 41 49 62 63 63 63 65 66 67 70 71 73 72 71 71 70 70 70 69 69 69 69 69 68 68 68 67 68 68 68 69 69 69 69
36 30 28 27 25 24 29 31 31 32 32 35 38 34 35 40 48 61 62 62 62 63 65 65 68 69 69 69 72 71 71 70 70 70 70 70 70 70 69 69 69 68 69 69 69 69 69 68 68
34 29 26 25 26 24 29 32 33 35 35 35 36 34 37 42 44 53 58 60 62 62 62 64 66 67 68 68 69 71 71 71 71 71 71 69 68 69 68 69 69 69 70 70 70 70 69 67 66
35 28 26 25 26 25 26 29 29 30 32 35 36 36 38 41 39 40 44 53 59 61 61 62 65 66 66 65 66 68 68 68 69 69 69 69 68 68 69 69 69 69 70 70 70 70 68 66 65
46 38 27 27 25 26 29 31 34 33 31 32 34 35 36 37 37 38 38 43 51 58 61 61 63 64 64 64 64 66 68 67 68 68 68 68 67 68 68 67 68 68 69 69 69 69 67 65 63
43 45 41 38 40 43 42 44 42 38 36 36 33 35 36 35 37 37 37 38 38 44 58 61 63 63 63 63 62 63 66 66 67 67 67 67 67 66 67 66 65 66 67 68 67 66 66 65 63
38 41 44 44 43 43 42 41 42 41 41 39 37 37 37 37 38 38 38 38 39 39 44 58 63 63 62 62 61 62 64 64 64 66 67 66 66 65 65 65 63 64 65 66 65 64 63 62 62
25 26 29 34 38 35 36 37 37 38 38 37 37 37 37 37 37 37 36 36 40 40 41 46 63 64 64 62 61 60 61 63 63 64 66 66 66 65 64 63 63 63 64 65 65 63 62 61 62
25 22 23 24 25 28 27 28 30 32 33 32 34 35 35 36 37 37 37 38 38 38 41 44 56 64 64 64 61 59 60 62 62 63 66 66 65 64 64 63 63 63 64 64 63 63 63 62 62
26 25 20 22 23 24 27 26 29 33 33 33 33 33 35 36 36 37 38 39 40 41 41 44 51 63 64 64 63 60 60 62 62 63 66 66 65 64 63 63 63 63 63 63 63 62 62 62 62
24 19 23 23 24 24 24 25 31 31 30 30 30 31 32 31 35 38 38 38 40 40 42 43 51 59 64 64 65 63 62 62 62 64 66 66 65 64 64 63 64 64 64 63 63 62 62 62 62
22 23 24 24 24 23 22 23 26 26 26 28 29 30 31 31 33 35 37 38 38 42 44 46 47 55 63 64 64 64 64 64 64 64 65 65 65 64 64 64 64 64 63 63 62 62 62 62 61
19 21 22 24 26 24 22 22 23 26 26 25 26 26 27 29 31 36 38 39 40 44 46 47 49 56 63 64 63 62 63 64 64 65 65 65 65 65 64 64 63 63 63 63 63 62 62 61 61
17 17 18 22 23 23 24 23 24 24 24 24 26 28 31 33 33 34 35 38 40 43 46 48 50 60 63 64 63 63 63 64 64 65 65 66 65 65 64 64 63 63 63 63 62 61 60 60 60
17 18 19 19 22 21 22 21 22 23 24 23 23 25 26 29 31 32 33 36 38 42 44 46 50 59 63 63 63 62 62 62 62 64 65 65 65 65 64 63 63 63 63 62 61 60 60 59 58
13 18 20 23 23 19 22 17 19 20 19 19 19 22 24 29 30 31 33 36 37 39 42 45 50 59 62 63 62 62 60 60 61 63 64 65 65 64 64 63 63 62 62 61 61 60 59 58 57
15 18 17 17 15 15 17 19 15 18 18 19 19 17 19 24 28 29 30 32 37 43 44 48 55 62 63 63 62 61 60 60 62 62 62 63 63 64 63 63 62 62 61 61 60 60 59 59 58
14 18 20 20 19 16 13 17 13 12 15 17 21 22 22 22 27 31 34 56 59 62 62 63 63 63 63 63 61 60 60 60 61 61 61 61 61 62 62 62 62 61 60 60 60 60 59 59 58
13 12 13 15 15 11 16 16 10 20 21 22 23 24 27 29 29 32 53 58 62 62 62 63 63 61 61 61 60 60 61 61 60 60 60 60 60 60 61 60 60 60 60 60 60 60 60 59 58
14 12 13 11 12 12 15 16 18 21 21 23 24 23 24 25 30 52 57 61 62 62 63 62 61 60 61 60 60 60 60 60 61 61 60 60 59 59 60 60 60 59 60 60 60 60 60 59 59
16 13 14 8 11 10 16 19 21 19 17 19 20 23 24 26 49 58 60 62 61 60 60 60 60 60 59 59 59 59 60 60 59 59 60 59 59 59 59 59 59 59 60 61 61 60 60 60 59
18 17 9 10 6 10 14 16 17 19 21 22 25 27 27 46 57 58 60 59 59 59 59 59 59 59 59 59 59 59 59 60 59 59 59 59 59 59 59 58 59 59 60 61 61 61 60 59 59
19 18 17 11 14 13 14 16 23 20 24 26 35 47 35 53 57 59 59 59 58 59 59 58 58 58 58 58 58 58 59 59 59 59 59 58 58 58 58 58 58 59 60 60 60 60 60 59 59
24 19 19 16 12 12 15 12 18 23 26 28 29 52 53 57 58 58 59 58 58 58 58 58 58 58 58 58 58 58 58 58 58 58 57 57 57 58 58 58 58 58 59 60 60 60 60 59 59
Lifted_Index
5 6 8 7 5 3 2 1 1 1 1 2 2 1 1 0 1 1 1 1 0 -1 -3 -4 -4 -3 -3 -2 -2 -1 -0 1 1 2 3 3 4 5 5 6 6 6 6 5 5 4 4 4 3
6 7 8 7 4 3 2 1 1 1 2 2 2 2 1 1 0 0 0 0 -0 -2 -3 -4 -4 -4 -3 -3 -2 -2 -1 0 1 2 2 3 3 4 5 5 5 5 5 5 4 4 3 3 2
8 8 8 6 3 2 2 1 1 2 2 2 2 2 1 1 0 -0 -1 -1 -1 -2 -3 -3 -4 -4 -4 -4 -3 -2 -1 -1 -0 1 2 2 3 3 4 4 4 4 4 3 3 3 2 2 1
8 8 7 5 3 2 2 2 2 2 1 1 2 2 1 1 0 -0 -1 -1 -1 -1 -2 -3 -4 -4 -4 -4 -3 -2 -2 -2 -1 -0 0 1 2 2 2 3 3 3 2 2 2 1 1 0 -0
8 8 6 4 3 3 3 2 2 2 1 1 2 2 1 1 0 -0 -0 -1 -1 -1 -1 -2 -3 -4 -4 -4 -3 -3 -2 -2 -2 -1 -1 -0 0 1 1 2 2 1 1 1 0 -0 -1 -1 -2
7 7 5 3 3 3 3 3 3 2 2 2 2 2 2 1 1 -0 -0 -0 -1 -1 -1 -2 -3 -4 -4 -4 -3 -2 -2 -3 -2 -2 -2 -2 -1 -0 0 0 0 0 -0 -0 -1 -2 -2 -3 -3
7 6 5 4 3 3 4 4 3 2 3 3 3 2 2 2 1 -0 -0 -1 -0 -0 -0 -1 -3 -4 -4 -4 -3 -3 -3 -3 -3 -3 -3 -3 -2 -2 -1 -1 -1 -1 -1 -2 -2 -3 -3 -3 -3
6 6 5 4 3 3 4 4 3 3 3 3 3 3 2 2 1 0 -0 -1 -0 -0 -0 -1 -2 -3 -4 -4 -3 -3 -3 -3 -4 -4 -4 -3 -3 -3 -3 -3 -3 -3 -3 -3 -3 -4 -4 -3 -3
5 5 4 4 3 3 3 4 3 3 3 3 3 3 2 2 2 1 0 0 -0 -0 -1 -1 -2 -3 -3 -4 -4 -4 -4 -4 -5 -5 -4 -4 -4 -4 -4 -4 -4 -4 -4 -4 -5 -5 -4 -3 -3
4 4 4 4 3 3 3 3 3 3 3 3 2 2 2 2 2 2 2 1 0 -1 -1 -2 -2 -2 -3 -3 -3 -4 -4 -4 -5 -5 -5 -4 -4 -4 -4 -4 -4 -4 -5 -5 -5 -5 -4 -3 -2
3 3 4 3 3 3 2 3 3 2 2 2 2 2 2 2 2 2 2 2 2 0 -1 -2 -2 -2 -2 -2 -2 -3 -3 -4 -4 -5 -5 -4 -4 -4 -4 -4 -4 -4 -5 -5 -5 -5 -4 -3 -2
3 3 3 3 2 2 2 2 3 3 3 3 2 2 2 2 2 2 3 3 2 1 -0 -2 -2 -3 -2 -2 -2 -2 -3 -3 -4 -4 -4 -4 -4 -3 -3 -3 -3 -3 -4 -5 -5 -5 -4 -3 -2
3 3 3 2 2 1 1 2 3 4 4 4 4 3 3 3 2 2 2 2 3 2 1 -0 -2 -3 -2 -2 -2 -2 -2 -3 -3 -4 -4 -4 -3 -3 -2 -2 -2 -2 -3 -4 -5 -4 -4 -3 -2
4 4 3 3 2 2 2 3 4 4 4 4 4 4 3 3 3 2 2 2 2 2 2 2 -0 -2 -2 -2 -2 -2 -2 -2 -3 -3 -3 -3 -3 -2 -1 -1 -1 -2 -3 -4 -4 -4 -4 -3 -3
5 5 4 4 4 4 3 4 4 4 4 4 4 3 3 3 3 3 2 2 2 3 3 3 2 -0 -1 -2 -2 -2 -2 -2 -3 -3 -3 -3 -2 -1 -1 -1 -1 -1 -2 -3 -3 -3 -3 -3 -3
5 5 4 5 5 5 4 4 5 5 4 4 4 4 4 4 3 3 3 3 3 4 4 4 3 1 -1 -2 -2 -2 -2 -3 -3 -3 -3 -3 -3 -2 -1 -1 -1 -1 -2 -3 -3 -3 -3 -3 -3
5 4 4 5 5 5 5 5 5 5 5 5 5 5 5 5 4 4 4 4 4 5 4 4 3 2 -0 -2 -2 -3 -3 -3 -3 -3 -4 -3 -3 -2 -2 -1 -1 -2 -3 -3 -3 -3 -3 -3 -3
5 5 5 5 6 6 5 6 6 6 6 6 6 6 6 6 5 5 5 5 5 5 4 4 3 2 -0 -2 -2 -3 -3 -3 -3 -4 -4 -4 -4 -3 -3 -2 -2 -3 -4 -4 -3 -3 -3 -3 -2
6 6 6 6 6 6 6 6 7 7 7 7 7 7 7 7 7 6 6 6 6 5 4 4 3 2 0 -1 -2 -2 -3 -3 -4 -4 -5 -5 -5 -4 -4 -3 -3 -4 -4 -4 -3 -3 -3 -2 -2
7 7 7 7 7 7 6 6 7 7 8 8 7 7 7 7 7 7 7 6 6 5 5 4 3 2 0 -1 -2 -2 -3 -3 -4 -5 -5 -5 -5 -5 -5 -4 -4 -4 -4 -3 -3 -3 -2 -1 -1
8 8 7 7 7 6 6 6 6 7 7 8 8 8 7 7 7 7 6 6 6 5 5 4 4 3 1 -1 -2 -2 -3 -3 -4 -5 -5 -6 -6 -5 -5 -5 -4 -4 -3 -3 -3 -2 -1 -1 -0
8 8 8 8 7 6 5 4 4 5 6 7 7 7 7 6 6 6 6 6 6 5 5 5 4 3 1 -1 -2 -3 -3 -3 -4 -5 -6 -6 -6 -6 -5 -5 -4 -3 -3 -3 -2 -1 -0 -0 -0
9 9 9 8 7 6 5 4 3 3 4 5 6 6 6 5 5 6 6 6 5 4 4 4 3 2 0 -1 -2 -3 -3 -4 -4 -5 -6 -6 -6 -5 -4 -4 -3 -3 -3 -2 -1 0 0 0 0
8 8 8 7 6 5 5 4 3 3 4 5 5 5 5 5 6 6 5 4 2 1 1 1 1 -0 -1 -2 -3 -3 -4 -4 -5 -5 -6 -6 -5 -4 -4 -3 -3 -2 -1 -0 0 1 0 0 0
7 7 5 4 3 3 4 4 3 4 5 6 6 6 6 6 6 6 4 1 -0 -1 -2 -2 -2 -2 -3 -3 -4 -4 -5 -5 -5 -5 -5 -4 -3 -3 -3 -2 -2 -1 0 1 1 1 0 0 0
5 5 5 3 2 3 4 4 4 6 6 6 6 6 6 6 6 4 1 -1 -2 -3 -3 -3 -4 -4 -4 -4 -5 -5 -5 -5 -5 -4 -3 -3 -2 -2 -2 -1 -0 1 1 1 1 0 -0 -0 -0
3 4 5 4 3 2 2 3 5 6 6 6 6 6 6 5 4 2 -1 -2 -3 -4 -4 -4 -4 -5 -5 -5 -5 -5 -5 -5 -4 -3 -2 -2 -1 -1 0 1 1 2 1 1 0 -0 -0 -0 -0
2 3 4 5 4 1 1 2 5 6 6 6 5 5 5 4 2 -0 -2 -3 -4 -4 -4 -5 -5 -5 -4 -4 -4 -4 -4 -3 -2 -2 -1 -1 -0 1 1 2 2 2 1 0 -0 -0 -0 -0 0
1 2 4 5 4 2 1 3 5 7 6 6 5 4 3 2 0 -2 -2 -3 -3 -4 -4 -4 -4 -4 -3 -3 -3 -2 -2 -2 -1 -1 -0 0 1 2 2 2 2 1 1 0 -0 -0 -0 -0 0
1 2 3 5 5 4 3 4 6 8 7 6 4 3 2 1 -1 -2 -2 -3 -3 -4 -4 -4 -3 -3 -2 -2 -1 -1 -1 -1 -0 -0 0 1 2 2 2 2 2 1 1 0 0 -0 -0 -0 0